Weather Roundup
Issued by NWS

Home | Current Version | Previous Version | Graphics & Text | Print | Product List | Glossary Off
Versions: 1 2 3 4 5 6 7 8 9 10 11 12 13 14 15 16 17 18 19 20 21 22 23 24 25 26 27 28 29 30 31 32 33 34 35 36 37 38 39 40 41 42 43 44 45 46 47 48 49 50

000
NZUS93 KARX 210159
HRRWXR

CURRENT HOURLY OBSERVATIONS ACROSS
MUCH OF THE UPPER MISSISSIPPI VALLEY
NATIONAL WEATHER SERVICE LA CROSSE WI
900 PM CDT MON APR 20 2015


...SOUTHEAST MINNESOTA...


CITY           SKY/WX    TMP DP  RH WIND       PRES   REMARKS
ROCHESTER      FLURRIES  36  32  85 W24G31    29.57R WCI  24
ROCHESTER/MAYO CLOUDY    38  32  79 W17G31    29.56S WCI  28
WINONA         MOCLDY    41  30  65 W16G23    29.54S
AUSTIN         MOCLDY    39  30  70 W14G23    29.59S WCI  31
ALBERT LEA     PTCLDY    39  30  70 W10G21    29.60F WCI  32
DODGE CENTER   CLOUDY    37  34  87 W17G28    29.57S WCI  28
PRESTON        CLOUDY    37  32  82 W21G28    29.58S WCI  26
OWATONNA       RAIN      37  34  87 W17       29.59S WCI  28
FARIBAULT      CLOUDY    39  34  81 W21G30    29.58S WCI  29
$$

...ELSEWHERE IN MINNESOTA...


CITY           SKY/WX    TMP DP  RH WIND       PRES   REMARKS
MINNEAPOLIS    CLOUDY    40  30  67 W17G25    29.53S WCI  31
INTNL FALLS    LGT SNOW  33  31  92 W10       29.37S FOG     WCI  25
DULUTH         LGT SNOW  33  28  81 W18       29.37S WCI  22
RED WING       CLOUDY    43  30  61 W12G23    29.52R
REDWOOD FALLS  CLOUDY    41  31  67 NW15G25   29.63R
MANKATO        CLOUDY    39  30  70 W16G22    29.61R WCI  30
WORTHINGTON    PTCLDY    39  25  56 NW17      29.68R WCI  30
FAIRMONT       MOCLDY    39  25  56 W14       29.64S WCI  31
$$

...SOUTHWEST WISCONSIN...


CITY           SKY/WX    TMP DP  RH WIND       PRES   REMARKS
LA CROSSE      CLOUDY    43  29  57 W13       29.54S
PRAIRIE DU CHI CLOUDY    42  31  63 W14G23    29.60R
BOSCOBEL       CLOUDY    44  30  57 W9G17     29.58S
LONE ROCK      NOT AVBL
PLATTEVILLE    CLOUDY    41  34  75 W15       29.60R
FORT MC COY    CLOUDY    41  25  54 W10G23    29.53R
VIROQUA        CLOUDY    39  28  64 W15G23    29.54S WCI  31
WIS DELLS      CLOUDY    41  29  62 W12       29.52S
$$

...ELSEWHERE IN WISCONSIN...


CITY           SKY/WX    TMP DP  RH WIND       PRES   REMARKS
MILWAUKEE      MOCLDY    43  28  55 W13G23    29.54R
MADISON        CLOUDY    43  29  57 W15G21    29.54R
GREEN BAY      CLOUDY    41  31  67 W8        29.45S
EAU CLAIRE     CLOUDY    39  27  62 W10       29.47S WCI  32
BLACK RVR FLS  CLOUDY    41  25  53 W9G17     29.51S
MEDFORD        CLOUDY    35  27  73 W14G22    29.43R WCI  26
WAUSAU         CLOUDY    38  28  67 W15       29.42R WCI  29
WIS RAPIDS     LGT RAIN  40  28  62 W10       29.48S WCI  33
MARSHFIELD     CLOUDY    38  26  62 W15G23    29.45R WCI  29
RICE LAKE      FLURRIES  37  30  78 W14       29.48R WCI  28
$$

...NORTHEAST IOWA...


CITY           SKY/WX    TMP DP  RH WIND       PRES   REMARKS
DECORAH        CLOUDY    39  32  75 W10G20    29.59R WCI  32
MASON CITY     PTCLDY    39  29  67 W16       29.65S WCI  30
CHARLES CITY   CLOUDY    41  32  70 W14G20    29.63S
OELWEIN        MOCLDY    41  32  70 W18       29.64S
$$

...ELSEWHERE IN IOWA...


CITY           SKY/WX    TMP DP  RH WIND       PRES   REMARKS
DES MOINES     CLEAR     48  18  30 W8        29.71R
IOWA CITY      CLEAR     44  32  62 NW6       29.68R
FORT DODGE     PTCLDY    43  28  56 N7        29.70R
$$

...NORTHERN ILLINOIS...


CITY           SKY/WX    TMP DP  RH WIND       PRES   REMARKS
CHICAGO-OHARE  PTCLDY    43  31  62 W12G21    29.60R
CHICAGO-MIDWAY PTCLDY    47  31  53 W15G22    29.62R
MOLINE         PTCLDY    40  34  79 S3        29.66S
ROCKFORD       MOCLDY    43  31  62 W12       29.62R
PEORIA         MOCLDY    50  28  42 W16G24    29.71R
$$

NOTE: "FAIR" INDICATES FEW OR NO CLOUDS BELOW 12,000 FEET WITH NO
SIGNIFICANT WEATHER AND/OR OBSTRUCTIONS TO VISIBILITY. WIND
SPEEDS ARE IN MILES-PER-HOUR.



USA.gov is the U.S. government's official web portal to all federal, state and local government web resources and services.